Newport Municipal Airport Newport US
ICAO: KONP
IATA: ONP
Category: Medium
Scheduled Services: No

Elevation: 160 ft
TransAlt. 18000 ft.

Airport Communications:
AWOS 3:133.9
SEATTLE CNTR:125.8
CTAF/UNICOM:122.8

KONP Zoom In..

If you have problems with the map follow the link
https://www.worldairports.se/pages/airport.php?
ICAO=KONP

Runways:

(A) RW 02 length 3001 ft width 75 ft
---- / hdg 18

(B) RW 16 length 5398 ft width 150 ft
ILS 111.50 / hdg 158

(C) RW 20 length 3001 ft width 75 ft
---- / hdg 198

(D) RW 34 length 5398 ft width 150 ft
---- / hdg 338

Location; KONP
Day. 19 / Time. 22.35 Zulu
* Altimeter: 29.83
* Temperature: 15° c. 59°f.
* Wind from: 320° Speed 09 kn.
Dewpoint: 11° c.
Visibility: 7 Statute Miles.
Clouds: Clear (automated report).

KONP 192235Z AUTO 32009KT 7SM CLR 15/11 A2983 RMK AO2


Wind From 320°
Speed 09 kn.

 
 
jpsmedia.com for Web Design worldairports.se 2019   terms of use